Starlink 31292

operational
NORAD ID: 59081 Int'l Des: 2024-041 Owner: SPXS Country: US Constellation: starlink
LEOCIRCULAR

Über Starlink 31292

Beschreibung wird geladen...

Live-Position

3D-Globus wird geladen...

Nächste Überflüge

Höhenverlauf

Altitude vs Time

uPlot chart will show altitude changes over time

Zweizeiliger Elementsatz

1 59081U 24041H 25258.18642933 .00001586 00000-0 67117-4 0 9998
2 59081 42.9984 221.5873 0000913 260.7079 99.3670 15.27581890 87424
Epoch: 15. Sept. 2025 • Age: 9 hours

Aktueller Status

Höhe 490.5 km
Geschwindigkeit 7.62 km/s
Subsatellitenpunkt -29.71°S, 18.15°W
Startdatum 29. Feb. 2024
Alter 1.5 years
Typ internet

Technische Details

Klassifizierung Payload
Masse 730.00 kg
Trockenmasse 700.00 kg
Gesamtmasse 730.00 kg
Länge 0.30 m
Durchmesser 4.10 m
Spannweite 29.00 m
Form Box + pan
Hersteller SPXS
Bus-Typ Starlink V2M
Phasenstatus In Orbit
Besitzer/Staat SPXS/US

Große Konstellationen

Loading constellations...